Location: Isles
(48.9125°N, 2.8272°E)
Time: 12:20:41
(UTC+00:00)

SKYMED 2 - Pass Details

Date: 03 February 2023
Orbit: 621 x 623 km, 97.9° (Epoch: 26 March)

Event Time Altitude Azimuth Distance (km) Brightness Sun altitude
Rises 17:51:35 0° 15° (NNE) 2,921 6.7 -10.6°
Reaches altitude 10° 17:53:48 10° 18° (NNE) 2,009 5.9 -10.9°
Maximum altitude 17:58:09 68° 102° (ESE) 677 3.5 -11.6°
Drops below altitude 10° 18:02:28 10° 186° (S) 1,991 6.4 -12.3°
Sets 18:04:40 0° 188° (S) 2,892 7.3 -12.7°
